Погода в Косихе

Россия / Алтайский край     53°21′40″N   84°34′47″E
темп.,
°C
ветер,
м/с
пор.,
м/с
влажн.,
%
обл.,
%
осадки,
мм/ч
давл.,
гПа
погр.,
м
6 мая, чт
чт601:00+10в3759100 0.0 1013122
04:00+9в3763100 0.0 1011114
07:00+9вюв3966100 0.0 1010147
10:00+16юв4649100 0.0 1009349
13:00+21ююв344393 0.0 1007694
16:00+24юз5634100 0.0 10061201
19:00+21ююв4545100 0.0 100579
22:00+18ю3652100 0.0 100569
7 мая, пт
пт701:00+17ю4959100 0.0 1004142
04:00+17ююз51250100 0.0 1004189
07:00+15зсз51069100 0.0 1007350
10:00+16зсз6864100 0.0 1010677
13:00+14з3666100 0.0 1012380
16:00+19з6837100 0.0 10122194
19:00+17з693999 0.0 1014928
22:00+12зсз41042100 0.0 1018266
8 мая, сб
сб801:00+9з36510 0.0 1019112
04:00+7зсз22590 0.0 102126
07:00+8зсз23640 0.0 102286
10:00+13зсз34430 0.0 1022764
13:00+16зсз33320 0.0 10201200
16:00+18зсз45345 0.0 10191833
19:00+18з353912 0.0 10191060
22:00+13юз345123 0.0 101964
9 мая, вс
вс901:00+12юз4756100 0.0 1019101
04:00+12зюз3556100 0.0 1019101
07:00+12зсз236321 0.0 101966
10:00+16ссв235531 0.0 1019704
13:00+18с3347100 0.0 10181478
16:00+19с444328 0.0 10171574
19:00+17ссв444373 0.0 10171127
22:00+12св51052100 0.0 1017289
10 мая, пн
пн1001:00+10всв41051100 0.0 1016271
04:00+8всв411577 0.0 1016257
07:00+7св51161100 0.0 1015309
10:00+12св6849100 0.0 1013563
13:00+15св5739100 0.0 1012975
16:00+17св5738100 0.0 10101150
19:00+15ссв61046100 0.0 1009423
22:00+11с4115194 0.0 1009244